Location: Unspecified
(0.0000°N, 0.0000°E)
Time: 00:49:41
(UTC+00:00)

Tiangong 1 - Visible Passes

Search period start: 28 February 2017 00:00
Search period end: 10 March 2017 00:00
Orbit: 337 x 361 km, 42.8° (Epoch: 27 February)

Date Brightness Start Highest point End Pass type
(mag) Time Alt. Az. Time Alt. Az. Time Alt. Az.
06 Mar 3.0 19:05:01 10° S 19:06:24 14° SE 19:06:24 14° SE visible
07 Mar 1.3 19:28:22 10° SW 19:30:47 57° SW 19:30:47 57° SW visible
08 Mar 4.0 19:54:10 10° W 19:55:12 13° WNW 19:55:12 13° WNW visible
09 Mar 1.3 18:41:37 10° SW 18:44:31 63° NW 18:47:23 10° NE visible
